Weather History for Point Pleasant, WV

Change the Weather History Date:

Thursday, October 18, 2012

  Actual Average (KHTS) Record (KHTS)
Temperature  
Mean Temperature 52 °F 56 °F  
Max Temperature 62 °F 68 °F 87 °F (1938)
Min Temperature 41 °F 44 °F 27 °F (1969)
Degree Days  
Heating Degree Days 14 10  
Month to date heating degree days 132  
Since 1 July heating degree days 190  
Cooling Degree Days 0 0  
Month to date cooling degree days 16  
Year to date cooling degree days 1127  
Growing Degree Days 2 (Base 50)    
Moisture  
Dew Point 44 °F    
Average Humidity 66    
Maximum Humidity 93    
Minimum Humidity 47    
Precipitation  
Precipitation 0.00 in 0.09 in 1.42 in (1911)
Month to date precipitation 1.57  
Year to date precipitation 34.60  
Snow  
Snow 0.00 in - - ()
Month to date snowfall  
Since 1 September snowfall  
Snow Depth -    
Sea Level Pressure  
Sea Level Pressure 29.72 in    
Wind  
Wind Speed 3 mph (South)    
Max Wind Speed 17 mph    
Max Gust Speed 26 mph    
Visibility 10 miles    
Events Rain    
T = Trace of Precipitation, MM = Missing Value Source: NWS Daily Summary

Daily Weather History Graph

Daily Weather History Graph

Search for Another Location

Airport:

Trip Planner

Search our weather history database for the weather conditions in past years. The results will help you decide how hot, cold, wet, or windy it might be!

Date:

Astronomy

Oct. 18, 2012 Rise Set
Actual Time 7:41 AM EDT 6:44 PM EDT
Civil Twilight 7:14 AM EDT 7:11 PM EDT
Nautical Twilight 6:43 AM EDT 7:42 PM EDT
Astronomical Twilight 6:12 AM EDT 8:13 PM EDT
Moon 11:19 AM EDT (10/18) 9:19 PM EDT (10/18)
Length of Visible Light 11h 57m
Length of Day
11h 03m
Waxing Crescent, 14% of the Moon is Illuminated
Oct 18
Waxing Crescent
Oct 21
First Quarter
Oct 29
Full
Nov 6
Last Quarter
Nov 13
New

Hourly Weather History & Observations

Time (EDT) Temp. Windchill Dew Point Humidity Pressure Visibility Wind Dir Wind Speed Gust Speed Precip Events Conditions
12:15 AM 60.8 °F - 41.0 °F 48% 29.71 in 10.0 mi Calm Calm - N/A   Clear
12:35 AM 59.0 °F - 41.0 °F 51% 29.71 in 10.0 mi ESE 3.5 mph - N/A   Clear
12:55 AM 59.0 °F - 41.0 °F 51% 29.71 in 10.0 mi ESE 4.6 mph - N/A   Clear
1:15 AM 57.2 °F - 41.0 °F 55% 29.71 in 10.0 mi Calm Calm - N/A   Clear
1:35 AM 51.8 °F - 42.8 °F 71% 29.71 in 10.0 mi Calm Calm - N/A   Clear
1:55 AM 53.6 °F - 41.0 °F 62% 29.71 in 10.0 mi Calm Calm - N/A   Clear
2:15 AM 50.0 °F - 41.0 °F 71% 29.70 in 10.0 mi East 3.5 mph - N/A   Clear
2:35 AM 50.0 °F - 42.8 °F 76% 29.70 in 10.0 mi Calm Calm - N/A   Clear
2:55 AM 53.6 °F - 42.8 °F 67% 29.70 in 10.0 mi Calm Calm - N/A   Clear
3:15 AM 53.6 °F - 42.8 °F 67% 29.69 in 10.0 mi Calm Calm - N/A   Clear
3:35 AM 51.8 °F - 42.8 °F 71% 29.69 in 10.0 mi Calm Calm - N/A   Clear
3:55 AM 53.6 °F - 42.8 °F 67% 29.68 in 10.0 mi East 3.5 mph - N/A   Clear
4:15 AM 55.4 °F - 42.8 °F 63% 29.66 in 10.0 mi East 3.5 mph - N/A   Clear
4:35 AM 59.0 °F - 42.8 °F 55% 29.65 in 10.0 mi ESE 4.6 mph - N/A   Clear
4:55 AM 59.0 °F - 41.0 °F 51% 29.64 in 10.0 mi ESE 6.9 mph - N/A   Clear
5:15 AM 59.0 °F - 42.8 °F 55% 29.67 in 10.0 mi Calm Calm - N/A   Clear
5:35 AM 57.2 °F - 42.8 °F 59% 29.67 in 10.0 mi Calm Calm - N/A   Clear
5:55 AM 57.2 °F - 42.8 °F 59% 29.67 in 10.0 mi SE 4.6 mph - N/A   Scattered Clouds
6:15 AM 59.0 °F - 42.8 °F 55% 29.68 in 10.0 mi SSW 4.6 mph - N/A   Overcast
6:35 AM 59.0 °F - 42.8 °F 55% 29.69 in 10.0 mi South 4.6 mph - N/A   Overcast
6:55 AM 59.0 °F - 42.8 °F 55% 29.70 in 10.0 mi SW 5.8 mph - N/A   Overcast
7:15 AM 59.0 °F - 42.8 °F 55% 29.70 in 10.0 mi SSW 9.2 mph 17.3 mph N/A   Overcast
7:35 AM 60.8 °F - 42.8 °F 52% 29.68 in 10.0 mi South 3.5 mph - N/A   Overcast
7:55 AM 60.8 °F - 42.8 °F 52% 29.65 in 10.0 mi SSE 3.5 mph - N/A   Scattered Clouds
8:15 AM 60.8 °F - 42.8 °F 52% 29.64 in 10.0 mi SSE 5.8 mph - N/A   Scattered Clouds
8:35 AM 59.0 °F - 42.8 °F 55% 29.66 in 10.0 mi SSE 3.5 mph - N/A   Scattered Clouds
8:55 AM 60.8 °F - 42.8 °F 52% 29.68 in 10.0 mi South 4.6 mph - N/A   Scattered Clouds
9:15 AM 60.8 °F - 44.6 °F 55% 29.69 in 10.0 mi SSW 4.6 mph - N/A   Mostly Cloudy
9:35 AM 60.8 °F - 44.6 °F 55% 29.68 in 10.0 mi SSW 6.9 mph - N/A   Overcast
9:55 AM 60.8 °F - 44.6 °F 55% 29.68 in 10.0 mi South 5.8 mph - N/A   Overcast
10:15 AM 62.6 °F - 44.6 °F 52% 29.68 in 10.0 mi SSW 5.8 mph - N/A   Overcast
10:35 AM 60.8 °F - 44.6 °F 55% 29.68 in 10.0 mi South 6.9 mph - N/A   Overcast
10:55 AM 62.6 °F - 44.6 °F 52% 29.68 in 10.0 mi South 3.5 mph - N/A   Overcast
11:15 AM 59.0 °F - 50.0 °F 72% 29.69 in 4.0 mi SSW 3.5 mph - N/A Rain Light Rain
11:35 AM 59.0 °F - 51.8 °F 77% 29.69 in 7.0 mi SW 5.8 mph - N/A   Overcast
11:55 AM 59.0 °F - 51.8 °F 77% 29.71 in 10.0 mi SW 5.8 mph - N/A   Overcast
12:15 PM 60.8 °F - 51.8 °F 72% 29.71 in 10.0 mi WSW 4.6 mph - N/A   Overcast
12:35 PM 59.0 °F - 51.8 °F 77% 29.72 in 10.0 mi West 17.3 mph 26.5 mph N/A   Overcast
12:55 PM 55.4 °F - 46.4 °F 72% 29.73 in 10.0 mi WSW 10.4 mph 17.3 mph N/A   Mostly Cloudy
1:15 PM 59.0 °F - 46.4 °F 63% 29.73 in 10.0 mi WSW 8.1 mph - N/A   Mostly Cloudy
1:35 PM 55.4 °F - 46.4 °F 72% 29.73 in 7.0 mi WSW 10.4 mph - N/A Rain Light Rain
1:55 PM 57.2 °F - 46.4 °F 67% 29.73 in 10.0 mi WSW 8.1 mph - N/A   Overcast
2:15 PM 55.4 °F - 46.4 °F 72% 29.73 in 10.0 mi WSW 6.9 mph - N/A   Overcast
2:35 PM 55.4 °F - 46.4 °F 72% 29.72 in 10.0 mi WSW 4.6 mph - N/A   Overcast
2:55 PM 57.2 °F - 44.6 °F 63% 29.71 in 10.0 mi WSW 3.5 mph - N/A   Overcast
3:15 PM 55.4 °F - 46.4 °F 72% 29.74 in 10.0 mi SSW 5.8 mph - N/A   Overcast
3:35 PM 57.2 °F - 46.4 °F 67% 29.72 in 10.0 mi SW 3.5 mph - N/A   Overcast
3:55 PM 57.2 °F - 46.4 °F 67% 29.73 in 10.0 mi SSE 3.5 mph - N/A   Overcast
4:15 PM 57.2 °F - 46.4 °F 67% 29.73 in 10.0 mi Calm Calm - N/A Rain Light Rain
4:35 PM 59.0 °F - 46.4 °F 63% 29.72 in 10.0 mi SW 5.8 mph - N/A   Overcast
4:55 PM 57.2 °F - 46.4 °F 67% 29.73 in 10.0 mi SSW 3.5 mph - N/A   Overcast
5:15 PM 57.2 °F - 46.4 °F 67% 29.74 in 10.0 mi South 3.5 mph - N/A   Overcast
5:35 PM 55.4 °F - 48.2 °F 77% 29.74 in 10.0 mi Calm Calm - N/A   Overcast
5:55 PM 55.4 °F - 41.0 °F 58% 29.75 in 10.0 mi WSW 9.2 mph - N/A   Overcast
6:15 PM 55.4 °F - 41.0 °F 58% 29.77 in 10.0 mi WSW 6.9 mph - N/A   Overcast
6:35 PM 55.4 °F - 37.4 °F 51% 29.76 in 10.0 mi SSW 8.1 mph 17.3 mph N/A   Overcast
6:55 PM 55.4 °F - 35.6 °F 47% 29.76 in 10.0 mi South 3.5 mph - N/A   Overcast
7:15 PM 55.4 °F - 37.4 °F 51% 29.77 in 10.0 mi South 3.5 mph - N/A   Mostly Cloudy
7:35 PM 51.8 °F - 41.0 °F 67% 29.78 in 10.0 mi Calm Calm - N/A   Scattered Clouds
7:55 PM 51.8 °F - 41.0 °F 67% 29.79 in 10.0 mi ESE 4.6 mph - N/A   Clear
8:15 PM 51.8 °F - 42.8 °F 71% 29.80 in 10.0 mi East 3.5 mph - N/A   Clear
8:35 PM 46.4 °F 45.2 °F 42.8 °F 87% 29.80 in 10.0 mi East 3.5 mph - N/A   Clear
8:55 PM 46.4 °F - 42.8 °F 87% 29.80 in 10.0 mi Calm Calm - N/A   Clear
9:15 PM 46.4 °F - 42.8 °F 87% 29.80 in 10.0 mi Calm Calm - N/A   Clear
9:35 PM 46.4 °F - 42.8 °F 87% 29.80 in 10.0 mi Calm Calm - N/A   Clear
9:55 PM 44.6 °F - 42.8 °F 93% 29.81 in 10.0 mi Calm Calm - N/A   Clear
10:15 PM 42.8 °F - 41.0 °F 93% 29.81 in 10.0 mi Calm Calm - N/A   Clear
10:35 PM 42.8 °F - 41.0 °F 93% 29.80 in 10.0 mi Calm Calm - N/A   Clear
10:55 PM 42.8 °F - 41.0 °F 93% 29.80 in 10.0 mi Calm Calm - N/A   Clear
11:15 PM 41.0 °F - 39.2 °F 93% 29.79 in 10.0 mi Calm Calm - N/A   Clear
11:35 PM 41.0 °F - 39.2 °F 93% 29.79 in 10.0 mi Calm Calm - N/A   Clear
11:55 PM 41.0 °F - 39.2 °F 93% 29.79 in 10.0 mi Calm Calm - N/A   Clear